Regional Weather Roundup
Issued by NWS

Home | Current Version | Previous Version | Graphics & Text | Print | Product List | Glossary On
Versions: 1 2 3 4 5 6 7 8 9 10 11 12 13 14 15 16 17 18 19 20 21 22 23 24 25 26 27
000
ASUS45 KBOI 210610
RWRID
WEATHER ROUNDUP FOR IDAHO
NATIONAL WEATHER SERVICE BOISE ID
1200 AM MDT MON APR 21 2014

NOTE: "FAIR" INDICATES FEW OR NO CLOUDS BELOW 12000 FEET
WITH NO SIGNIFICANT WEATHER AND/OR OBSTRUCTIONS TO VISIBILITY

IDZ012-014-210700-
SOUTHWEST IDAHO


CITY           SKY/WX    TMP DP  RH WIND       PRES   REMARKS
BOISE          MOCLDY    48  28  46 CALM      30.19F
CALDWELL       MOCLDY    48  27  43 CALM      30.20F
MOUNTAIN HOME  MOCLDY    45  19  35 W5        30.20S
$$

IDZ016-017-210700-
SOUTHCENTRAL IDAHO


CITY           SKY/WX    TMP DP  RH WIND       PRES   REMARKS
BURLEY         CLEAR     39  24  55 SW10      30.21S WCI  32
JEROME         PTCLDY    45  21  38 S9        30.21S
TWIN FALLS     CLEAR     44  19  36 S14       30.22F
$$

IDZ019>023-210700-
SOUTHEAST IDAHO


CITY           SKY/WX    TMP DP  RH WIND       PRES   REMARKS
IDAHO FALLS    CLEAR     45  17  32 S7        30.24R
POCATELLO      CLEAR     42  14  32 S9        30.24R
REXBURG        CLEAR     43  16  33 S5        30.24R
$$

IDZ006-010-011-018-031-032-210700-
CENTRAL IDAHO MOUNTAINS


CITY           SKY/WX    TMP DP  RH WIND       PRES   REMARKS
MCCALL         MOCLDY    39  24  55 N5        30.23F
HAILEY         PTCLDY    45  19  36 NW7       30.22S
STANLEY          N/A     29  22  75 SE5       30.29R WCI  24
SALMON         PTCLDY    39  21  48 CALM      30.22S
CHALLIS        MOCLDY    43  14  31 S3        30.23S
$$

IDZ002-004-006-007-026-210700-
NORTHERN IDAHO


CITY           SKY/WX    TMP DP  RH WIND       PRES   REMARKS
LEWISTON       PTCLDY    50  31  48 S5        30.17F
LOWELL           N/A     43  36  76 CALM      30.27S
COEUR D`ALENE  CLEAR     37  37 100 CALM      30.21F
MULLAN PASS    CLEAR     36  19  50 SW8       30.22F WCI  30
$$



USA.gov is the U.S. government's official web portal to all federal, state and local government web resources and services.